CHIUDI BANNER

Seguici su twitter Seguici su facebook
LIVE Streaming HD
Get Adobe Flash player
Dati meteo stazione (refresh automatico ogni minuto)
Senigallia(AN) VENTO: VELOCITÀ   PIOGGIA: QTA GIORNO TEMPERATURA: ATTUALE
SPOT: Darsena Di Senigallia RAFFICA MASSIMA: QTA MENSILE: MASSIMA:
VELOCITÀ MEDIA: QTA ANNUALE: MINIMA:
DIREZIONE: UMIDITÀ: WIND CHILL:
TIPO: DEW POINT:
BEAUFORT: PRESSIONE:
I nostri partner
Senigallia(AN) nelle ultime ore
Applica filtri in visualizzazione Intervallo delle letture nelle ultime

Ora Direzione Vento Velocita' Vento Media Vento Raffica Max. Temperatura Wind Chill Pioggia Pressione
01:49:55299 °(WNW)11.3 Kts11.3 Kts17.4 Kts0 °C0 °C0 mm1008.8 Hpa
01:44:30296 °(WNW)11.3 Kts12.2 Kts17.4 Kts0 °C0 °C0 mm1008.8 Hpa
01:40:14289 °(WNW)8.7 Kts12.2 Kts17.4 Kts0 °C0 °C0 mm1008.7 Hpa
01:34:40287 °(WNW)14.8 Kts11.3 Kts17.4 Kts0 °C0 °C0 mm1008.7 Hpa
01:30:11298 °(WNW)10.4 Kts10.4 Kts15.6 Kts0 °C0 °C0 mm1008.7 Hpa
01:24:46298 °(WNW)12.2 Kts9.6 Kts15.6 Kts0 °C0 °C0 mm1009 Hpa
01:20:15299 °(WNW)12.2 Kts8.7 Kts15.6 Kts0 °C0 °C0 mm1009 Hpa
01:14:33292 °(WNW)5.2 Kts8.7 Kts15.6 Kts0 °C0 °C0 mm1009.2 Hpa
01:10:01288 °(WNW)7 Kts8.7 Kts15.6 Kts0 °C0 °C0 mm1009.2 Hpa
01:04:31317 °(NW)7 Kts8.7 Kts15.6 Kts0 °C0 °C0 mm1009.2 Hpa
01:00:01319 °(NW)11.3 Kts8.7 Kts15.6 Kts0 °C0 °C0 mm1009.4 Hpa
00:53:34293 °(WNW)7.8 Kts8.7 Kts15.6 Kts0 °C0 °C0 mm1009.5 Hpa
00:49:50290 °(WNW)8.7 Kts8.7 Kts15.6 Kts0 °C0 °C0 mm1009.5 Hpa
00:45:20298 °(WNW)8.7 Kts8.7 Kts15.6 Kts0 °C0 °C0 mm1009.5 Hpa
00:39:49292 °(WNW)9.6 Kts8.7 Kts15.6 Kts0 °C0 °C0 mm1009.4 Hpa
00:34:32277 °(W)13 Kts8.7 Kts15.6 Kts0 °C0 °C0 mm1009.4 Hpa
00:29:34290 °(WNW)8.7 Kts9.6 Kts15.6 Kts0 °C0 °C0 mm1009.2 Hpa
00:25:03273 °(W)7 Kts9.6 Kts15.6 Kts0 °C0 °C0 mm1009.2 Hpa
00:19:36282 °(WNW)9.6 Kts9.6 Kts15.6 Kts0 °C0 °C0 mm1009.3 Hpa
00:15:06302 °(WNW)7.8 Kts9.6 Kts15.6 Kts0 °C0 °C0 mm1009.2 Hpa
00:09:38281 °(W)7 Kts9.6 Kts15.6 Kts0 °C0 °C0 mm1009 Hpa
00:05:10286 °(WNW)8.7 Kts9.6 Kts14.8 Kts0 °C0 °C0 mm1009.2 Hpa
23:59:46294 °(WNW)7.8 Kts10.4 Kts13 Kts0 °C0 °C0 mm1009.2 Hpa
23:55:18291 °(WNW)7.8 Kts10.4 Kts45.2 Kts0 °C0 °C1.6 mm1009.2 Hpa